www.pogodaiklimat.ru

Погода и климат >> Архив погоды >> Индия >> Махараштра >> Брамапури


ПОГОДА в Брамапури

  • Прогноз погоды в Брамапури
  • Монитор погоды в Брамапури

АРХИВ ПОГОДЫ в Брамапури

Время (UTC), дата Ветер
(напр.,м/с)
 
Видим.   Явления Облачность Т
(С)
Тd
(С)
f
(%)
Тe
(С)
Тes
(С)
Комфортность P
(гПа)
Po
(гПа)
Тmin
(С)
Tmax
(С)
R
(мм)
R24
(мм)
S
(см)
03 12.08 СЗ 1 4000 м 9/4 1000 м
[Cu Sc Ac trans]
+28.2 +22.9 73 +38 +40 очень
душно
1003.0 977.3 +24.4
06 12.08 штиль 0 4000 м 8/0
[Ac trans Ci fib]
+31.0 +23.5 64 +42 +61 опасность
перегрева
1002.4 976.9
09 12.08 штиль 0 4000 м 8/4 1000 м
[Cu Sc Ac trans]
+32.0 +23.3 60 +43 +50 опасность
перегрева
999.7 974.4
12 12.08 штиль 0 4000 м 10/5 1000 м
[Cu Sc Ac trans]
+30.2 +22.4 63 +39 +40 очень
душно
999.2 973.8 +32.8
03 13.08 штиль 0 1000 м слаб. дождь 10/8 600 м
[Sc As op]
+24.8 +22.7 88 +33 +33 очень
душно
1002.1 976.1 +22.2 46
06 13.08 штиль 0 4000 м 10/8 600 м
[Sc As op]
+25.0 +22.9 88 +33 +34 очень
душно
1002.2 976.2 3
09 13.08 штиль 0 2000 м слаб. дождь 10/8 600 м
[Sc As op]
+24.8 +22.7 88 +33 +33 очень
душно
1000.7 974.8 9
12 13.08 штиль 0 2000 м 10/8 600 м
[Sc As op]
+24.6 +21.9 85 +32 +32 очень
душно
1000.8 974.8 +25.6 14
03 14.08 штиль 0 2000 м 10/8 600 м
[Sc As op]
+24.6 +22.8 90 +33 +33 очень
душно
1003.0 977.0 +22.0 129
06 14.08 штиль 0 4000 м 10/8 600 м
[Sc As op]
+26.0 +22.4 81 +34 +35 очень
душно
1003.1 977.2
09 14.08 штиль 0 4000 м 10/8 600 м
[Sc As op]
+28.2 +23.9 78 +39 +40 очень
душно
1001.2 975.5
12 14.08 штиль 0 4000 м 10/8 600 м
[Sc As op]
+28.0 +24.3 80 +39 +39 очень
душно
1000.7 975.0 +28.8
03 15.08 штиль 0 2000 м 9/6 600 м
[Cu Sc As op]
+27.4 +23.0 77 +37 +38 очень
душно
1005.3 979.5 +22.8 1
06 15.08 штиль 0 4000 м 9/5 1000 м
[Cu Sc Ac trans]
+30.8 +22.6 62 +40 +48 очень
душно
1004.9 979.4
12 15.08 штиль 0 4000 м 6/4 600 м
[Cu Sc Ac trans]
+30.8 +23.6 66 +42 +43 опасность
перегрева
1001.7 976.2 +33.0
03 16.08 штиль 0 4000 м 4/4 1000 м
[Cu Sc]
+28.2 +22.9 73 +38 +44 очень
душно
1005.1 979.3 +23.2
06 16.08 штиль 0 4000 м 4/4 600 м
[Cu Sc]
+31.8 +24.4 65 +44 +61 опасность
перегрева
1004.6 979.1
09 16.08 штиль 0 4000 м 5/5 1000 м
[Cu Sc]
+33.2 +22.4 53 +42 +53 опасность
перегрева
1002.2 976.9
12 16.08 штиль 0 4000 м 4/4 1000 м
[Cu Sc Ac trans]
+32.6 +24.3 62 +45 +46 опасность
перегрева
1001.0 975.7 +33.9
03 17.08 штиль 0 4000 м 4/0
[Ci fib]
+28.2 +22.6 72 +37 +47 очень
душно
1005.2 979.4 +23.9
06 17.08 штиль 0 4000 м 5/5 1000 м
[Cu Sc]
+31.6 +22.9 60 +42 +56 опасность
перегрева
1004.8 979.3
09 17.08 штиль 0 4000 м 5/5 600 м
[Cu Sc]
+33.0 +23.1 56 +43 +53 опасность
перегрева
1002.3 977.0
12 17.08 штиль 0 4000 м 5/0
[Ci fib]
+32.2 +24.2 63 +44 +46 опасность
перегрева
1002.2 976.8 +33.7
03 18.08 штиль 0 4000 м 4/0
[Ci fib]
+28.6 +23.4 73 +39 +48 очень
душно
1005.8 980.0 +24.3
06 18.08 СЗ 1 4000 м 5/3 1000 м
[Cu Sc Ac trans]
+32.0 +23.3 60 +43 +57 опасность
перегрева
1005.8 980.3
12 18.08 штиль 0 4000 м 8/4 1000 м
[Cu Sc Ac trans]
+32.0 +22.7 58 +42 +42 опасность
перегрева
1003.1 977.7 +34.4

 

Местоположение метеостанции Брамапури (Махараштра, Индия): широта 20.60 долгота 79.85 высота над уровнем моря 229 м.

В архиве по умолчанию представлена погода в Брамапури за последнюю неделю. Архивные данные за месяц целиком и за предыдущие месяцы, начиная с января 2011 года, Вы можете получить, выбрав интересующий диапазон дат из раскрывающегося списка и нажав кнопку "Ввод!".


*Определитесь, кто Вы:
робот инопланетянин человек

Внимание! Время в таблицах - всемирное. Для получения местного времени необходимо прибавить поправку, которая равна 5.5 ч.

Смотрите также архив погоды в соседних городах и на ближайших метеорологических станциях:

Погода в Чандрапуре (Махараштра, Индия) (91 км)
Погода в Нагпуре (Махараштра, Индия) (100 км)
Погода в Гондии (Махараштра, Индия) (103 км)
Погода в Вардхе (Махараштра, Индия) (132 км)
Погода в Раджнандгаоне (Чхаттисгарх, Индия) (135 км)
Погода в Дурге (Чхаттисгарх, Индия) (162 км)
Погода в Сеони (Мадхья-Прадеш, Индия) (168 км)
Погода в Адилабаде (Телингана, Индия) (174 км)
Погода в Яватмале (Махараштра, Индия) (179 км)
Погода в Малейнджкханде (Мадхья-Прадеш, Индия) (179 км)

Пояснения к столбцам:

Ветер - указаны скорость ветра в м/с - средняя за 10 мин, порывы в срок и между сроками (в фигурных скобках) и направление, откуда дует ветер: С - северный, СВ - северо-восточный, В - восточный, ЮВ - юго-восточный, Ю - южный, ЮЗ - юго-западный, З - западный, СЗ - северо-западный.
Видимость - горизонтальная дальность видимости в метрах или километрах. При видимости от 1 до 10 км при отсутствии осадков обычно наблюдается дымка, при ухудшении видимости до 1 км и менее - туман. В сухую погоду видимость может ухудшаться дымом, пылью или мглою.
Явления - указаны атмосферные явления, наблюдавшиеся в срок или в последний час перед сроком; фигурными скобками обозначены явления, наблюдавшиеся между сроками (за 1-3 часа до срока); квадратными скобками обозначены град или гололедные отложения с указанием их диаметра в мм.
Облачность - указаны через наклонную черту общая и нижняя облачность в баллах и высота нижней границы облаков в метрах; квадратными скобками обозначены формы облаков: Ci - перистые, Cs - перисто-слоистые, Cc - перисто-кучевые, Ac - высококучевые, As - высокослоистые, Sc - слоисто-кучевые, Ns - слоисто-дождевые, Cu - кучевые, Cb - кучево-дождевые. Подробнее классификацию облаков см. в Атласе облаков (PDF).
T - Температура воздуха - температура, измеренная на высоте 2 м над землей.
Td - Температура точки росы - температура, при понижении до которой содержащийся в воздухе водяной пар достигнет насыщения.
f - Относительная влажность воздуха - влажноcть воздуха, измеренная на высоте 2 м над землей.
Te - Эффективная температура - температура, которую ощущает одетый по сезону человек в тени. Характеристика душности погоды. При расчете учитывается влияние влажности воздуха и скорости ветра на теплоощущения человека.
Tes - Эффективная температура на солнце - температура, которую ощущает человек, с поправкой на солнечный нагрев. Характеристика знойности погоды. Зависит от высоты солнца над горизонтом, облачности и скорости ветра. Ночью, в пасмурную погоду, а также при ветре 12 м/с и более поправка равна нулю.
P - Атмосферное давление - приведенное к уровню моря атмосферное давление.
Po - Атмосферное давление - измеренное на уровне метеостанции атмосферное давление.
Tmin - Минимальная температура - минимум температуры воздуха на высоте 2 м над землей.
Tmax - Максимальная температура - максимум температуры воздуха на высоте 2 м над землей.
R - Количество осадков - Количество выпавших осадков за период времени, мм. При наведении курсора мыши на число - период времени, за который выпало указанное количество осадков.
R24 - Количество осадков - Количество выпавших осадков за 24 часа, мм.
S - Снежный покров - Высота снежного покрова, см. При наведении курсора мыши на число - состояние снежного покрова и степень покрытия местности в баллах.